Regional Weather Roundup
Issued by NWS State College, PA

Home | Current Version | Previous Version | Text Only | Print | Product List | Glossary On
Versions: 1 2 3 4 5 6 7 8 9 10 11 12 13 14 15 16 17 18 19 20 21 22 23 24 25 26 27 28 29 30 31 32 33 34 35 36 37 38 39 40 41 42 43 44 45 46 47 48 49 50
000
ASUS41 KCTP 191503
RWRCTP

REGIONAL WEATHER ROUNDUP
NATIONAL WEATHER SERVICE STATE COLLEGE PA
1100 AM EDT SAT AUG 19 2017

Note: "fair" indicates few or no clouds below 12,000 feet with no
significant weather and/or obstructions to visibility.

* = STATION THAT DOES NOT REPORT PRECIPITATION /E.G. RAIN...SNOW...ETC/
    THUNDER OR FOG.

PAZ002>004-007>009-013>016-020>023-029>032-191600-
WESTERN PENNSYLVANIA

CITY           SKY/WX    TMP DP  RH WIND       PRES   REMARKS
ERIE           MOSUNNY   74  64  71 SW8       29.89R
MEADVILLE      MOSUNNY   71  64  78 W8        29.93R
FRANKLIN*      MOSUNNY   72  63  73 SW9       29.94F
NEW CASTLE     PTSUNNY   72  66  81 VRB3      29.95F
BEAVER COUNTY  NOT AVBL
BUTLER*        CLOUDY    73  66  78 SW10      29.97F
PITTSBURGH INT PTSUNNY   76  67  73 W10G17    29.98R
PITTSBURGH     CLOUDY    74  63  68 W10       29.97R
INDIANA*       CLOUDY    75  66  73 W12       30.00R
LATROBE        PTSUNNY   75  66  73 SW9       29.99R
WASHINGTON CO* CLOUDY    73  64  73 W5        29.98F
$$

PAZ004>006-010>012-017>019-024>028-033>037-041-042-045-046-049>053-191600-
CENTRAL PENNSYLVANIA

CITY           SKY/WX    TMP DP  RH WIND       PRES   REMARKS
BRADFORD       MOSUNNY   70  60  70 W7        29.95S
DUBOIS         PTSUNNY   71  61  70 SW10      29.96R
CLEARFIELD     PTSUNNY   76  62  62 W10G18    29.96R
JOHNSTOWN      PTSUNNY   72  63  73 W13G20    30.00R
ALTOONA        MOSUNNY   75  65  70 W7        29.98R
STATE COLLEGE  MOSUNNY   75  66  73 W10       29.96R
WILLIAMSPORT   PTSUNNY   79  66  64 W10       29.90R
SELINSGROVE    MOSUNNY   79  67  66 VRB3      29.92R
FT INDIANTOWN  SUNNY     79  64  59 NW7       29.91R
CAPITAL CITY   MOSUNNY   81  63  54 NW10      29.92R
HARRISBURG     MOSUNNY   80  67  64 W7        29.91R
YORK           PTSUNNY   79  69  71 VRB5      29.93R
$$

PAZ038>040-043-044-047-048-054-055-060>062-067>071-191600-
EASTERN PENNSYLVANIA

CITY           SKY/WX    TMP DP  RH WIND       PRES   REMARKS
SCRANTON       PTSUNNY   77  62  59 W10       29.90S
MOUNT POCONO   MOSUNNY   71  61  70 W12       29.94R
ALLENTOWN      MOSUNNY   80  65  59 MISG      29.89S
QUAKERTOWN*    SUNNY     81  66  61 W7        29.92R
READING        MOSUNNY   82  67  60 NW7       29.90R
LANCASTER      MOSUNNY   81  68  64 NW9       29.92R
COATESVILLE    SUNNY     79  66  65 N8G14     29.94S
POTTSTOWN      MOSUNNY   79  67  66 W6        29.92R
BLUE BELL      SUNNY     79  68  69 NW5       29.91S
DOYLESTOWN     SUNNY     81  65  58 NW9       29.90R
WILLOW GROVE   NOT AVBL
NORTH PHILA    SUNNY     85  65  51 NW8       29.90S
PHILADELPHIA   MOSUNNY   84  64  50 NW13      29.89S
$$




USA.gov is the U.S. government's official web portal to all federal, state and local government web resources and services.